Location: Overspoor
(51.4747°N, 5.6641°E)
Time: 14:44:20
(UTC+02:00)

RS-15 - Pass Details

Date: 03 July 2022
Orbit: 1881 x 2163 km, 64.8° (Epoch: 13 August)

Event Time Altitude Azimuth Distance (km) Brightness Sun altitude
Rises 00:29:42 0° 317° (NW) 5,696 11.7 -13.9°
Reaches altitude 10° 00:33:10 10° 317° (NW) 4,694 11.1 -14.0°
Maximum altitude 00:45:35 84° 233° (SW) 2,159 8.2 -14.5°
Enters shadow 00:56:22 14° 147° (SSE) 4,198 9.2 -14.9°
